St. Johns, AZ

9:06 AM MST on October 23, 2019 (GMT -0700)
Saint Johns Industrial

Weather History for KSJN - August, 2019

Change the Weather History Date:

Wednesday, August 28, 2019

  Actual Average (WUND) Record (WUND)
Temperature  
Mean Temperature 68 °F -  
Max Temperature 86 °F - - (-1)
Min Temperature 51 °F - - (-1)
Cooling Degree Days 4    
Growing Degree Days 18 (Base 50)    
Moisture  
Dew Point 48 °F    
Average Humidity 42    
Maximum Humidity 75    
Minimum Humidity 17    
Precipitation  
Precipitation 0.25 in - - ()
Sea Level Pressure  
Sea Level Pressure 30.00 in    
Wind  
Wind Speed 7 mph (SW)    
Max Wind Speed 25 mph    
Max Gust Speed 33 mph    
Visibility 9 miles    
Events Rain , Thunderstorm    
Averages and records for this station are not official NWS values.
T = Trace of Precipitation, MM = Missing Value Source: NWS Daily Summary

Daily Weather History Graph

Daily Weather History Graph

Search for Another Location

Airport or City:

Astronomy

Aug. 28, 2019 Rise Set
Actual Time 5:47 AM MST 6:49 PM MST
Civil Twilight 5:21 AM MST 7:15 PM MST
Nautical Twilight 4:51 AM MST 7:45 PM MST
Astronomical Twilight 4:19 AM MST 8:17 PM MST
Moon 3:31 AM MST (8/28) 5:57 PM MST (8/28)
Length of Visible Light 13h 53m
Length of Day
13h 01m
Waning Crescent, 4% of the Moon is Illuminated
Aug 28
Waning Crescent
Aug 30
New
Sep 5
First Quarter
Sep 13
Full
Sep 21
Last Quarter

Hourly Weather History & Observations

Time (MST) Temp. Dew Point Humidity Pressure Visibility Wind Dir Wind Speed Gust Speed Precip Events Conditions
12:54 AM 70.0 °F 41.0 °F 35% 29.84 in 10.0 mi SSE 5.8 mph - N/A   Clear
1:54 AM 66.9 °F 41.0 °F 39% 29.84 in 10.0 mi Calm Calm - N/A   Clear
2:54 AM 66.0 °F 39.9 °F 38% 29.84 in 10.0 mi SE 5.8 mph - N/A   Clear
3:54 AM 66.0 °F 39.9 °F 38% 29.85 in 10.0 mi Calm Calm - N/A   Clear
4:54 AM 63.0 °F 41.0 °F 45% 29.88 in 10.0 mi SSE 4.6 mph - N/A   Clear
5:54 AM 64.9 °F 41.0 °F 42% 29.89 in 10.0 mi Calm Calm - N/A   Clear
6:54 AM 64.9 °F 43.0 °F 45% 29.93 in 10.0 mi Calm Calm - N/A   Clear
7:54 AM 71.1 °F 41.0 °F 34% 29.94 in 10.0 mi Calm Calm - N/A   Clear
8:54 AM 81.0 °F 46.9 °F 30% 29.93 in 10.0 mi NE 3.5 mph - N/A   Clear
9:54 AM 84.0 °F 48.0 °F 28% 29.93 in 10.0 mi Variable 4.6 mph - N/A   Clear
10:54 AM 89.1 °F 48.0 °F 24% 29.90 in 10.0 mi North 6.9 mph - N/A   Clear
11:54 AM 91.9 °F 45.0 °F 20% 29.87 in 10.0 mi Variable 6.9 mph 19.6 mph N/A   Clear
12:45 PM 93.0 °F 42.1 °F 17% 30.20 in 10.0 mi Calm Calm - N/A Thunderstorm Partly Cloudy
12:54 PM 93.9 °F 43.0 °F 17% 29.86 in 10.0 mi West 10.4 mph - N/A   Mostly Cloudy
1:17 PM 88.0 °F 46.9 °F 24% 30.20 in 10.0 mi South 16.1 mph 26.5 mph N/A Thunderstorm Mostly Cloudy
1:32 PM 82.9 °F 46.9 °F 28% 30.21 in 10.0 mi SSE 16.1 mph 24.2 mph N/A   Overcast
1:42 PM 82.0 °F 50.0 °F 33% 30.23 in 10.0 mi SW 11.5 mph 24.2 mph N/A Thunderstorm Thunderstorm
1:54 PM 75.0 °F 55.0 °F 50% 29.99 in 3.0 mi WSW 20.7 mph 26.5 mph 0.09 in Rain , Thunderstorm Thunderstorms and Rain
1:57 PM 71.1 °F 57.9 °F 63% 30.24 in 2.5 mi WSW 20.7 mph 29.9 mph 0.03 in Rain Heavy Rain
2:07 PM 68.0 °F 57.0 °F 68% 30.23 in 1.8 mi SSW 25.3 mph 33.4 mph 0.15 in Rain , Thunderstorm Heavy Thunderstorms and Rain
2:11 PM 68.0 °F 57.0 °F 68% 30.22 in 2.0 mi South 17.3 mph 33.4 mph 0.16 in Rain , Thunderstorm Thunderstorms and Rain
2:17 PM 70.0 °F 57.0 °F 63% 30.22 in 6.0 mi SSW 19.6 mph - 0.16 in Rain , Thunderstorm Light Rain
2:54 PM 75.0 °F 54.0 °F 48% 29.93 in 10.0 mi SW 11.5 mph - 0.16 in   Mostly Cloudy
3:12 PM 73.9 °F 57.0 °F 55% 30.19 in 10.0 mi WSW 13.8 mph - N/A   Partly Cloudy
3:54 PM 75.9 °F 48.0 °F 37% 29.91 in 10.0 mi SW 21.9 mph 27.6 mph N/A   Clear
4:54 PM 75.9 °F 48.9 °F 38% 29.92 in 10.0 mi SW 11.5 mph - N/A   Clear
5:54 PM 75.0 °F 51.1 °F 43% 29.96 in 10.0 mi North 6.9 mph - N/A   Mostly Cloudy
6:54 PM 73.9 °F 51.1 °F 45% 29.96 in 10.0 mi SSW 5.8 mph - N/A   Clear
7:54 PM 73.9 °F 48.0 °F 40% 29.94 in 10.0 mi Variable 3.5 mph - N/A   Mostly Cloudy
8:54 PM 70.0 °F 52.0 °F 53% 29.94 in 10.0 mi West 11.5 mph - N/A   Clear
9:54 PM 69.1 °F 50.0 °F 51% 29.94 in 10.0 mi Calm Calm - N/A   Clear
10:54 PM 66.0 °F 52.0 °F 60% 29.94 in 10.0 mi SSE 5.8 mph - N/A   Clear
11:54 PM 62.1 °F 54.0 °F 75% 29.96 in 10.0 mi West 5.8 mph - N/A   Clear